Flag for Slovenia Weather past 2 weeks in Celje, Slovenia

Now
64 °F

Mild.


Feels Like: 64 °F
Forecast: 49 / 60 °F
Wind: 3 mph from Southeast

Location: Celje

Current Time: Aug 20, 2014 at 4:43:56 PM

Latest Report: Aug 20, 2014 at 4:00 PM


Visibility: N/A

Pressure: 29.98 "Hg

Humidity: 88%

Dew point: 60 °F

Location of CeljeLocation

Historic Weather in Celje — Graph

°F

Celje temperature yesterday

Maximum temperature yesterday: 74 °F (at 12:00 PM)
Minimum temperature yesterday: 53 °F (at 6:00 AM)
Average temperature yesterday: 63 °F

Past Weeks' High & Low Weather Summary

 TemperatureHumidityPressure
High87 °F (Aug 11, 2:00 PM)99% (Aug 15, 6:00 AM)30.13 "Hg (Aug 15, 6:00 AM)
Low48 °F (Aug 18, 6:00 AM)38% (Aug 17, 2:00 PM)29.66 "Hg (Aug 13, 8:00 PM)
Average67 °F78%29.95 "Hg
* Reported Aug 5 3:00 PM — Aug 20 3:00 PM, Celje, Weather by CustomWeather, © 2014

Note: Actual official high and low records may vary slightly from our data, if they occured in-between our weather recording intervals... More about our weather records

Advertising

Celje weather history for previous 24 hours

 ConditionsComfort  
Time TempWeatherWind HumidityBarometerVisibility
3:00 PM
Aug 20
68 °FOvercast.6 mph71%29.96 "Hg9 mi
2:00 PM69 °FPartly sunny.7 mph67%29.97 "Hg11 mi
1:00 PM70 °FMild.3 mph70%29.96 "HgN/A
11:00 AM70 °FMild.2 mph72%29.97 "HgN/A
10:00 AM66 °FMild.1 mph79%29.98 "HgN/A
9:00 AM64 °FMild.1 mph83%29.97 "HgN/A
8:00 AM62 °FFog.1 mph93%29.97 "Hg4 mi
7:00 AM60 °FLow clouds.No wind96%29.96 "Hg9 mi
6:00 AM60 °FCool.No wind97%29.96 "HgN/A
5:00 AM60 °FCool.1 mph97%29.96 "HgN/A
4:00 AM60 °FCool.1 mph97%29.95 "HgN/A
3:00 AM60 °FCool.No wind97%29.96 "HgN/A
2:00 AM60 °FCool.1 mph97%29.95 "HgN/A
1:00 AM60 °FCool.No wind96%29.95 "HgN/A
12:00 AM60 °FCool.1 mph95%29.96 "HgN/A
11:00 PM
Aug 19
62 °FCool.1 mph93%29.95 "HgN/A
10:00 PM63 °FMild.2 mph89%29.94 "HgN/A
9:00 PM62 °FMild.2 mph93%29.93 "HgN/A
8:00 PM66 °FOvercast.1 mph88%29.92 "Hg19 mi
7:00 PM68 °FMild.No wind77%29.91 "HgN/A
6:00 PM68 °FMild.No wind77%29.92 "HgN/A
5:00 PM68 °FMild.2 mph74%29.92 "HgN/A
4:00 PM69 °FMild.5 mph73%29.93 "HgN/A
Weather by CustomWeather, © 2014

See weather overviewHow to use our weather pages